This is the latest recevied weather packets stored in our database for station/object AD7ZD. If no packets are shown the sender has not sent any weather packets the latest 10 day(s).
| Time | Temp. | Humidity | Pressure | Rain* | Wind** | Luminosity | Snow |
|---|---|---|---|---|---|---|---|
| 1777673456 | 21.67° C | 14% | 1014.7 hPa | 0 mm | - | 607 W/m² | - |
| 1777673153 | 22.22° C | 14% | 1014.5 hPa | 0 mm | - | 619 W/m² | - |
| 1777672850 | 22.22° C | 15% | 1014.5 hPa | 0 mm | - | 642 W/m² | - |
| 1777672546 | 22.22° C | 14% | 1014.7 hPa | 0 mm | - | 650 W/m² | - |
| 1777672242 | 21.67° C | 14% | 1014.6 hPa | 0 mm | - | 688 W/m² | - |
| 1777671937 | 21.67° C | 14% | 1014.7 hPa | 0 mm | - | 658 W/m² | - |
| 1777671633 | 22.22° C | 14% | 1014.9 hPa | 0 mm | - | 714 W/m² | - |
| 1777671331 | 22.22° C | 15% | 1014.9 hPa | 0 mm | - | 689 W/m² | - |
| 1777671026 | 22.78° C | 14% | 1015 hPa | 0 mm | - | 608 W/m² | - |
| 1777670723 | 21.67° C | 15% | 1015 hPa | 0 mm | - | 683 W/m² | - |
| 1777670420 | 22.22° C | 14% | 1015 hPa | 0 mm | - | 667 W/m² | - |
| 1777670116 | 22.22° C | 14% | 1015.1 hPa | 0 mm | - | 685 W/m² | - |
| 1777669815 | 21.67° C | 16% | 1015.2 hPa | 0 mm | - | 701 W/m² | - |
| 1777669510 | 21.67° C | 15% | 1015.1 hPa | 0 mm | - | 778 W/m² | - |
| 1777669207 | 21.11° C | 15% | 1015.3 hPa | 0 mm | - | 711 W/m² | - |
| 1777668904 | 21.11° C | 16% | 1015.5 hPa | 0 mm | - | 740 W/m² | - |
| 1777668602 | 21.11° C | 16% | 1015.3 hPa | 0 mm | - | 724 W/m² | - |
| 1777668297 | 22.22° C | 15% | 1015.4 hPa | 0 mm | - | 634 W/m² | - |
| 1777667994 | 21.11° C | 16% | 1015.7 hPa | 0 mm | - | 681 W/m² | - |
| 1777667691 | 20.56° C | 17% | 1015.7 hPa | 0 mm | - | 728 W/m² | - |
| 1777667389 | 21.11° C | 16% | 1015.4 hPa | 0 mm | - | 741 W/m² | - |
| 1777667085 | 20.56° C | 16% | 1015.5 hPa | 0 mm | - | 696 W/m² | - |
| 1777666781 | 21.11° C | 17% | 1015.5 hPa | 0 mm | - | 760 W/m² | - |
| 1777666478 | 20.56° C | 17% | 1015.9 hPa | 0 mm | - | 777 W/m² | - |
| 1777666175 | 20.56° C | 17% | 1016 hPa | 0 mm | - | 783 W/m² | - |
* Rain latest hour (hover to see other rain measurements)
** Current wind speed in m/s (hover to see current wind gust speed)